TimeEST,TemperatureF,Dew PointF,Humidity,Sea Level PressureIn,VisibilityMPH,Wind Direction,Wind SpeedMPH,Gust SpeedMPH,PrecipitationIn,Events,Conditions,WindDirDegrees,DateUTC
12:55 AM,53.1,50.0,89,29.72,5.0,South,6.9,-,0.00,Rain,Light Rain,180,2012-11-12 05:55:00
1:04 AM,52.0,50.0,93,29.72,5.0,South,8.1,-,0.01,Rain,Light Rain,190,2012-11-12 06:04:00
1:24 AM,52.0,50.0,93,29.72,8.0,South,10.4,-,0.02,Rain,Light Rain,190,2012-11-12 06:24:00
1:34 AM,52.0,48.9,89,29.72,7.0,SSW,11.5,-,0.03,Rain,Light Rain,200,2012-11-12 06:34:00
1:55 AM,52.0,48.9,89,29.71,10.0,South,6.9,-,0.03,Rain,Light Rain,180,2012-11-12 06:55:00
2:04 AM,52.0,48.9,89,29.71,10.0,South,8.1,-,0.00,,Overcast,190,2012-11-12 07:04:00
2:55 AM,52.0,48.9,89,29.71,9.0,SSW,10.4,-,0.01,Rain,Light Rain,200,2012-11-12 07:55:00
3:26 AM,52.0,48.9,89,29.70,10.0,South,9.2,-,0.01,,Overcast,190,2012-11-12 08:26:00
3:55 AM,52.0,48.0,86,29.69,10.0,SSW,9.2,-,0.02,,Overcast,200,2012-11-12 08:55:00
4:33 AM,50.0,46.9,89,29.70,4.0,WSW,20.7,33.4,0.01,Rain,Light Rain,250,2012-11-12 09:33:00
4:55 AM,44.1,41.0,89,29.73,8.0,West,13.8,23.0,0.02,Rain,Light Rain,280,2012-11-12 09:55:00
5:06 AM,43.0,39.9,89,29.73,5.0,WNW,9.2,-,0.00,Rain,Light Rain,290,2012-11-12 10:06:00
5:26 AM,43.0,39.9,89,29.74,3.0,WNW,8.1,-,0.00,Rain,Light Rain,300,2012-11-12 10:26:00
5:55 AM,42.1,39.9,92,29.75,6.0,West,3.5,-,0.01,Rain,Light Rain,280,2012-11-12 10:55:00
6:16 AM,42.1,39.0,89,29.73,4.0,NNW,3.5,-,0.02,Rain,Light Rain,330,2012-11-12 11:16:00
6:55 AM,41.0,39.0,93,29.76,4.0,West,9.2,-,0.05,Rain,Rain,280,2012-11-12 11:55:00
7:04 AM,41.0,37.9,89,29.76,4.0,West,10.4,-,0.01,Rain,Light Rain,280,2012-11-12 12:04:00
7:55 AM,37.9,35.1,89,29.78,10.0,NW,10.4,-,0.04,Rain,Light Rain,310,2012-11-12 12:55:00
8:34 AM,37.9,35.1,89,29.78,10.0,NW,6.9,-,0.00,Rain,Light Rain,310,2012-11-12 13:34:00
8:55 AM,37.9,35.1,89,29.80,10.0,WNW,8.1,-,0.00,Rain,Light Rain,290,2012-11-12 13:55:00
9:02 AM,37.9,34.0,86,29.79,10.0,WNW,8.1,-,0.00,Rain,Light Rain,300,2012-11-12 14:02:00
9:15 AM,37.9,34.0,86,29.79,10.0,NW,5.8,-,0.00,Rain,Light Rain,310,2012-11-12 14:15:00
9:25 AM,37.9,34.0,86,29.79,7.0,WNW,5.8,-,0.00,,Overcast,290,2012-11-12 14:25:00
9:55 AM,37.9,35.1,89,29.79,7.0,West,6.9,-,0.00,,Overcast,280,2012-11-12 14:55:00
10:10 AM,37.9,35.1,89,29.78,2.5,WNW,4.6,-,N/A,,Overcast,300,2012-11-12 15:10:00
10:23 AM,37.9,35.1,89,29.79,1.2,WNW,5.8,-,0.00,Rain,Light Rain,290,2012-11-12 15:23:00
10:37 AM,37.9,35.1,89,29.79,3.0,WNW,6.9,-,0.01,Rain,Light Rain,300,2012-11-12 15:37:00
10:55 AM,37.9,35.1,89,29.80,9.0,WNW,5.8,-,0.01,Rain,Light Rain,290,2012-11-12 15:55:00
11:13 AM,37.9,35.1,89,29.79,10.0,West,5.8,-,0.00,,Overcast,270,2012-11-12 16:13:00
11:25 AM,37.9,35.1,89,29.80,6.0,WSW,5.8,-,0.00,Rain,Light Rain,250,2012-11-12 16:25:00
11:32 AM,37.9,35.1,89,29.80,4.0,West,4.6,-,0.01,Rain,Light Rain,270,2012-11-12 16:32:00
11:41 AM,37.9,35.1,89,29.79,8.0,West,6.9,-,0.01,Rain,Light Rain,260,2012-11-12 16:41:00
11:50 AM,39.2,35.6,87,29.78,6.0,West,5.8,-,0.01,Rain,Light Rain,270,2012-11-12 16:50:00
11:55 AM,37.9,35.1,89,29.80,5.0,West,8.1,-,0.01,Rain,Light Rain,260,2012-11-12 16:55:00
12:09 PM,37.0,34.0,89,29.79,3.0,WSW,8.1,-,0.02,Rain,Rain,240,2012-11-12 17:09:00
12:16 PM,37.0,34.0,89,29.79,3.0,WSW,6.9,-,0.03,Rain,Rain,250,2012-11-12 17:16:00
12:46 PM,37.0,33.1,86,29.80,7.0,WSW,12.7,-,0.06,Rain,Light Rain,250,2012-11-12 17:46:00
12:55 PM,37.0,33.1,86,29.81,10.0,SW,15.0,-,0.06,,Overcast,230,2012-11-12 17:55:00
1:09 PM,37.9,33.1,83,29.80,10.0,WSW,15.0,21.9,N/A,,Overcast,240,2012-11-12 18:09:00
1:55 PM,36.0,28.9,76,29.82,10.0,SW,18.4,28.8,N/A,,Overcast,220,2012-11-12 18:55:00
2:55 PM,34.0,26.1,73,29.84,10.0,WSW,19.6,24.2,N/A,,Overcast,250,2012-11-12 19:55:00
3:21 PM,33.1,25.0,72,29.83,10.0,SW,16.1,21.9,N/A,,Overcast,230,2012-11-12 20:21:00
3:55 PM,33.1,24.1,70,29.86,10.0,WSW,8.1,-,N/A,,Overcast,240,2012-11-12 20:55:00
4:31 PM,32.0,24.1,73,29.87,10.0,SW,11.5,-,N/A,,Overcast,230,2012-11-12 21:31:00
4:44 PM,32.0,23.0,69,29.87,8.0,WSW,13.8,-,0.00,Snow,Light Snow,240,2012-11-12 21:44:00
4:55 PM,30.9,23.0,72,29.89,9.0,SW,10.4,19.6,0.00,,Overcast,230,2012-11-12 21:55:00
5:55 PM,30.0,21.9,72,29.91,9.0,WSW,17.3,23.0,0.00,Snow,Light Snow,240,2012-11-12 22:55:00
6:28 PM,30.0,19.9,66,29.92,10.0,SW,12.7,24.2,0.00,,Overcast,230,2012-11-12 23:28:00
6:55 PM,28.9,19.0,67,29.94,10.0,West,11.5,23.0,0.00,,Overcast,270,2012-11-12 23:55:00
7:55 PM,28.0,18.0,66,29.96,10.0,West,16.1,-,N/A,,Overcast,260,2012-11-13 00:55:00
8:55 PM,27.0,16.0,63,29.97,10.0,WSW,16.1,-,N/A,,Overcast,240,2012-11-13 01:55:00
9:55 PM,27.0,16.0,63,30.00,10.0,West,11.5,-,N/A,,Overcast,260,2012-11-13 02:55:00
10:55 PM,27.0,15.1,61,30.02,10.0,WSW,13.8,27.6,N/A,,Overcast,250,2012-11-13 03:55:00
11:55 PM,26.1,14.0,60,30.04,10.0,WSW,12.7,-,N/A,,Overcast,240,2012-11-13 04:55:00